Voltar ao catálogo

THORAD AGENA D DEB

AtivoSSO
NORAD 6767·DEBRIS·🇺🇸 United States

Lançado Apr 8, 1970 de Vandenberg Space Force Base

Loading…

Próximas Passagens (próximas 24 horas)

TLE

AtualizadoSource: Space-Track

Época: Sep 13, 2026, 12:07 UTC

1 06767U 70025NF  26256.50506014  .00002013  00000-0  11697-2 0  9994
2 06767  99.0117 159.1613 0022588 315.6395  44.2964 14.09720782130203

Acompanhe THORAD AGENA D DEB em tempo real com AllMySat

Download on the App Store